EA3ANS-1 Weather Reports


Display with metric or nautical units.
time (UTC)temp
F
wind
direction
speed
MPH
gust
MPH
rain 1hr
in
rain 24hr
in
rain mn
in
humidity
%
barometer
mb
20260903065137 73 338 1.0 3.0 0.00 0.00 0.00 1021.4
20260903064140 72 323 5.0 7.0 0.00 0.00 0.00 1021.3
20260903063140 72 330 5.0 4.0 0.00 0.00 0.00 1021.2
20260903062136 71 23 4.0 3.0 0.00 0.00 0.00 1021.0
20260903061139 71 27 0.0 0.0 0.00 0.00 0.00 1020.9
20260903060141 70 318 7.0 6.0 0.00 0.00 0.00 1020.9
20260903055144 70 356 6.0 5.0 0.00 0.00 0.00 1020.7
20260903054103 70 295 6.0 8.0 0.00 0.00 0.00 1020.7
20260903053104 69 295 8.0 8.0 0.00 0.00 0.00 1020.6
20260903052107 69 318 6.0 8.0 0.00 0.00 0.00 1020.6
20260903050903 70 294 5.0 5.0 0.00 0.00 0.00 1020.5
20260903045905 70 325 5.0 4.0 0.00 0.00 0.00 1020.4
20260903044908 70 276 4.0 4.0 0.00 0.00 0.00 1020.3
20260903043911 70 332 4.0 4.0 0.00 0.00 0.00 1020.3
20260903042913 71 294 4.0 7.0 0.00 0.00 0.00 1020.3
20260903041914 71 14 0.0 0.0 0.00 0.00 0.00 1020.3
20260903040917 71 37 2.0 2.0 0.00 0.00 0.00 1020.3
20260903035912 71 82 0.0 0.0 0.00 0.00 0.00 1020.3
20260903034915 72 51 3.0 1.0 0.00 0.00 0.00 1020.2
20260903033909 71 325 6.0 8.0 0.00 0.00 0.00 1020.4
20260903032911 72 326 0.0 0.0 0.00 0.00 0.00 1020.4
20260903031914 72 44 0.0 0.0 0.00 0.00 0.00 1020.4
20260903030916 72 148 0.0 0.0 0.00 0.00 0.00 1020.5
20260903025915 72 148 0.0 0.0 0.00 0.00 0.00 1020.4
20260903024909 72 148 0.0 1.0 0.00 0.00 0.00 1020.5
20260903023914 72 115 1.0 0.0 0.00 0.00 0.00 1020.5
20260903023912 72 115 1.0 0.0 0.00 0.00 0.00 1020.5
20260903022914 72 113 1.0 1.0 0.00 0.00 0.00 1020.5
20260903021917 72 91 0.0 1.0 0.00 0.00 0.00 1020.4
20260903020920 72 111 1.0 2.0 0.00 0.00 0.00 1020.5
20260903015922 73 98 0.0 0.0 0.00 0.00 0.00 1020.5
20260903014925 73 124 1.0 3.0 0.00 0.00 0.00 1020.5
20260903013918 72 139 0.0 0.0 0.00 0.00 0.00 1020.5
20260903012921 73 300 0.0 0.0 0.00 0.00 0.00 1020.4
20260903011923 75 339 3.0 4.0 0.00 0.00 0.00 1020.4
20260903010926 74 336 6.0 6.0 0.00 0.00 0.00 1020.4
20260903005925 73 328 7.0 5.0 0.00 0.00 0.00 1020.4
20260903004927 74 356 0.0 1.0 0.00 0.00 0.00 1020.5
20260903003924 74 97 2.0 0.0 0.00 0.00 0.00 1020.6
20260903002913 73 17 1.0 0.0 0.00 0.00 0.00 1020.6
20260903001915 74 288 0.0 0.0 0.00 0.00 0.00 1020.6
20260903000917 74 184 2.0 0.0 0.00 0.00 0.00 1020.6
20260902235918 74 284 0.0 4.0 0.00 0.00 0.00 1020.7
20260902234921 74 48 0.0 0.0 0.00 0.00 0.00 1020.7
20260902233923 74 1 0.0 0.0 0.00 0.00 0.00 1020.6
20260902232922 74 6 0.0 0.0 0.00 0.00 0.00 1020.6
20260902231917 74 73 0.0 0.0 0.00 0.00 0.00 1020.6
20260902230920 74 73 0.0 0.0 0.00 0.00 0.00 1020.5
20260902225923 73 115 3.0 3.0 0.00 0.00 0.00 1020.4
20260902224925 75 134 2.0 2.0 0.00 0.00 0.00 1020.3
20260902223928 76 124 0.0 0.0 0.00 0.00 0.00 1020.2
20260902222930 76 293 2.0 2.0 0.00 0.00 0.00 1020.2
20260902221933 75 315 0.0 0.0 0.00 0.00 0.00 1020.2
20260902220918 76 301 2.0 4.0 0.00 0.00 0.00 1020.4
20260902215921 76 108 0.0 0.0 0.00 0.00 0.00 1020.5
20260902214923 76 118 1.0 0.0 0.00 0.00 0.00 1020.4
20260902213926 76 177 0.0 0.0 0.00 0.00 0.00 1020.3
20260902212927 77 17 0.0 0.0 0.00 0.00 0.00 1020.3
20260902211930 77 17 0.0 0.0 0.00 0.00 0.00 1020.2
20260902210921 77 17 0.0 0.0 0.00 0.00 0.00 1020.1
20260902205914 77 340 2.0 2.0 0.00 0.00 0.00 1020.1
20260902204916 78 287 2.0 0.0 0.00 0.00 0.00 1020.1
20260902203919 78 350 0.0 0.0 0.00 0.00 0.00 1020.2
20260902202919 78 297 0.0 0.0 0.00 0.00 0.00 1020.2
20260902201921 78 8 0.0 0.0 0.00 0.00 0.00 1020.1
20260902200924 79 8 0.0 0.0 0.00 0.00 0.00 1020.0
20260902195926 79 72 1.0 4.0 0.00 0.00 0.00 1019.9
20260902194922 79 39 2.0 2.0 0.00 0.00 0.00 1019.8
20260902193922 80 60 0.0 2.0 0.00 0.00 0.00 1019.7
20260902192925 80 179 0.0 2.0 0.00 0.00 0.00 1019.5
20260902191927 80 113 1.0 0.0 0.00 0.00 0.00 1019.4
20260902190930 80 158 5.0 5.0 0.00 0.00 0.00 1019.4
20260902185932 81 149 3.0 4.0 0.00 0.00 0.00 1019.1
20260902184928 81 111 3.0 3.0 0.00 0.00 0.00 1019.0
20260902183924 81 114 4.0 5.0 0.00 0.00 0.00 1018.9
20260902182927 81 136 7.0 7.0 0.00 0.00 0.00 1018.8
20260902181942 82 120 5.0 6.0 0.00 0.00 0.00 1018.7
20260902180929 82 104 7.0 6.0 0.00 0.00 0.00 1018.7
20260902175931 83 167 6.0 9.0 0.00 0.00 0.00 1018.7
20260902174924 83 121 8.0 6.0 0.00 0.00 0.00 1018.6
20260902173927 84 115 7.0 7.0 0.00 0.00 0.00 1018.6
20260902172923 85 146 7.0 6.0 0.00 0.00 0.00 1018.5
20260902171925 85 172 9.0 9.0 0.00 0.00 0.00 1018.5
20260902170928 85 124 9.0 7.0 0.00 0.00 0.00 1018.3
20260902165927 86 121 7.0 7.0 0.00 0.00 0.00 1018.3
20260902164930 87 150 7.0 5.0 0.00 0.00 0.00 1018.3
20260902163933 88 139 7.0 7.0 0.00 0.00 0.00 1018.2
20260902162934 88 152 7.0 6.0 0.00 0.00 0.00 1018.3
20260902161931 88 143 7.0 6.0 0.00 0.00 0.00 1018.3
20260902160933 88 127 9.0 10.0 0.00 0.00 0.00 1018.2
20260902155936 89 197 8.0 7.0 0.00 0.00 0.00 1018.4
20260902154938 89 152 9.0 12.0 0.00 0.00 0.00 1018.3
20260902153941 89 136 12.0 12.0 0.00 0.00 0.00 1018.2
20260902152943 90 186 8.0 11.0 0.00 0.00 0.00 1018.3
20260902151946 89 129 8.0 4.0 0.00 0.00 0.00 1018.3
20260902150941 89 97 6.0 7.0 0.00 0.00 0.00 1018.4
20260902145944 89 163 10.0 6.0 0.00 0.00 0.00 1018.5
20260902144947 90 222 9.0 7.0 0.00 0.00 0.00 1018.5
20260902143949 90 121 9.0 10.0 0.00 0.00 0.00 1018.6
20260902142952 89 193 9.0 8.0 0.00 0.00 0.00 1018.8
20260902141942 90 165 9.0 8.0 0.00 0.00 0.00 1018.8
20260902140945 90 120 7.0 9.0 0.00 0.00 0.00 1019.0
20260902135936 90 115 8.0 7.0 0.00 0.00 0.00 1019.0
20260902134936 89 141 10.0 5.0 0.00 0.00 0.00 1019.1
20260902133939 90 170 7.0 9.0 0.00 0.00 0.00 1019.1
20260902132941 90 148 8.0 4.0 0.00 0.00 0.00 1019.4
20260902131944 90 143 8.0 8.0 0.00 0.00 0.00 1019.4
20260902130947 90 146 11.0 15.0 0.00 0.00 0.00 1019.4
20260902125949 91 117 8.0 7.0 0.00 0.00 0.00 1019.4
20260902124946 91 169 9.0 8.0 0.00 0.00 0.00 1019.3
20260902123946 92 174 7.0 10.0 0.00 0.00 0.00 1019.3
20260902122949 91 131 7.0 8.0 0.00 0.00 0.00 1019.3
20260902121951 90 118 8.0 6.0 0.00 0.00 0.00 1019.3
20260902120948 92 131 7.0 7.0 0.00 0.00 0.00 1019.2
20260902115946 90 163 9.0 9.0 0.00 0.00 0.00 1019.3
20260902114948 90 172 9.0 9.0 0.00 0.00 0.00 1019.2
20260902113943 91 194 9.0 7.0 0.00 0.00 0.00 1019.2
20260902112940 92 200 7.0 10.0 0.00 0.00 0.00 1019.1
20260902111927 90 177 9.0 4.0 0.00 0.00 0.00 1019.2
20260902110927 90 173 5.0 5.0 0.00 0.00 0.00 1019.2
20260902105930 90 190 7.0 6.0 0.00 0.00 0.00 1019.3
20260902104926 89 156 6.0 6.0 0.00 0.00 0.00 1019.4
20260902103929 89 235 4.0 7.0 0.00 0.00 0.00 1019.4
20260902102924 88 155 7.0 3.0 0.00 0.00 0.00 1019.5
20260902101926 86 308 0.0 0.0 0.00 0.00 0.00 1019.6
20260902100924 87 204 6.0 2.0 0.00 0.00 0.00 1019.6
20260902095924 85 233 3.0 1.0 0.00 0.00 0.00 1019.6
20260902094923 85 103 4.0 1.0 0.00 0.00 0.00 1019.7
20260902093923 85 256 3.0 4.0 0.00 0.00 0.00 1019.6
20260902092925 84 297 4.0 4.0 0.00 0.00 0.00 1019.6
20260902091917 83 323 7.0 8.0 0.00 0.00 0.00 1019.5
20260902090919 82 300 4.0 9.0 0.00 0.00 0.00 1019.6
20260902085922 81 326 4.0 7.0 0.00 0.00 0.00 1019.7
20260902084922 81 316 5.0 6.0 0.00 0.00 0.00 1019.7
20260902083923 80 312 4.0 3.0 0.00 0.00 0.00 1019.6
20260902082924 79 319 7.0 7.0 0.00 0.00 0.00 1019.6
20260902081927 78 338 4.0 4.0 0.00 0.00 0.00 1019.5
20260902080923 77 281 5.0 4.0 0.00 0.00 0.00 1019.5
20260902075924 76 336 8.0 5.0 0.00 0.00 0.00 1019.5
20260902074922 76 328 8.0 5.0 0.00 0.00 0.00 1019.5
20260902073922 75 323 6.0 6.0 0.00 0.00 0.00 1019.5
20260902072925 75 352 4.0 6.0 0.00 0.00 0.00 1019.5
20260902071927 74 21 5.0 7.0 0.00 0.00 0.00 1019.5
20260902070930 74 21 5.0 9.0 0.00 0.00 0.00 1019.5
20260902065925 73 300 4.0 4.0 0.00 0.00 0.00 1019.5